P/2019 M2 ( ATLAS )

Japanese version
Home page
Updated on September 24, 2019

---------------------------------------------------------------------

* Profile

Discovery Date June 29, 2019
Magnitude 18.3 mag
Discoverer Asteroid Terrestrial-Impact Last Alert System (ATLAS) search program

* Pictures

* Orbital Elements

Epoch 2019 June 6.0 TT = JDT 2458640.5
T 2019 June 22.66914 TT                                 Williams
q   1.0633930            (2000.0)            P               Q
n   0.18721473     Peri.  332.51903     +0.18414805     +0.96834718
a   3.0262819      Node   307.60521     -0.85824341     +0.07485506
e   0.6486140      Incl.   12.28024     -0.47906966     +0.23811857
P   5.26
From 192 observations 2019 June 29-Aug. 12, mean residual 0".4.

* Magnitudes Graph

        m1 = 20.5 + 5 log d + 10.0 log r(t - 50)

---------------------------------------------------------------------

The orbital elements are published on M.P.E.C. 2019-Q135.
The magnitudes graphs are made with Comet for Windows.

---------------------------------------------------------------------

Copyright(C) Seiichi Yoshida (comet@aerith.net). All rights reserved.